Погода в Чипате

Замбия     13°38′05″S   32°38′42″E
темп.,
°C
ветер,
м/с
пор.,
м/с
влажн.,
%
обл.,
%
осадки,
мм/ч
давл.,
гПа
погр.,
м
26 июля, пн
пн2623:00+11ююв4117231 0.0 1026630
02:00+9юв311870 0.0 1025496
05:00+10юв5127968 0.0 1026752
08:00+11юв6117322 0.0 1027848
11:00+16ююв574714 0.0 10271436
14:00+18юв46382 0.0 10231629
17:00+18ю35359 0.0 1022781
20:00+11ююв411696 0.0 1025550
27 июля, вт
вт2723:00+10ююв31082100 0.0 1025413
02:00+8юв2109794 0.0 1025327
05:00+10ююв3108273 0.0 1025584
08:00+11юв4879100 0.0 1027514
11:00+18юв3442100 0.0 10251405
14:00+21ююв342999 0.0 10202109
17:00+20ююв353123 0.0 1020576
20:00+12ююв25446 0.0 1023103
28 июля, ср
ср2823:00+10вюв237036 0.0 102347
02:00+10вюв2372100 0.0 102266
05:00+8вюв238192 0.0 102249
08:00+14вюв25605 0.0 1023347
11:00+20вюв3333100 0.0 10221548
14:00+23юв2225100 0.0 10182062
17:00+21вюв2328100 0.0 1018100
20:00+13юв266680 0.0 1022134
29 июля, чт
чт2923:00+12юв2970100 0.0 1022221
02:00+11вюв2374100 0.0 102145
05:00+10вюв2376100 0.0 102242
08:00+15вюв2552100 0.0 1023270
11:00+22вюв333146 0.0 10221517
14:00+25юв33226 0.0 10182195
17:00+23ююв35275 0.0 1019251
20:00+15юв2843100 0.0 1022179
30 июля, пт
пт3023:00+13юв2448100 0.0 102486
02:00+12юв2453100 0.0 102374
05:00+11вюв2359100 0.0 102443
08:00+16юв374548 0.0 1025408
11:00+22юв453299 0.0 10241506
14:00+25ююв4519100 0.0 10202242
17:00+22ююв572040 0.0 1020931
20:00+16ююв51239100 0.0 1025675